[keps] orb07333.2l.amsat

Ray Hoad r.hoad at att.net
Thu Nov 29 20:24:21 PST 2007


SB KEPS @ AMSAT  $ORB07333.N
2Line Orbital Elements 07333.AMSAT

HR AMSAT ORBITAL ELEMENTS FOR AMATEUR SATELLITES IN NASA FORMAT
FROM WA5QGD FORT WORTH,TX November 29, 2007
Send Subscribe/unsubscribe to KEPS at 
http://www.amsat.org/mailman/listinfo/keps
BID: ORB07333.N

DECODE 2-LINE ELSETS WITH THE FOLLOWING KEY:
1 AAAAAU 00  0  0 BBBBB.BBBBBBBB  .CCCCCCCC  00000-0  00000-0 0  DDDZ
2 AAAAA EEE.EEEE FFF.FFFF GGGGGGG HHH.HHHH III.IIII JJ.JJJJJJJJKKKKKZ
KEY: A-CATALOGNUM B-EPOCHTIME C-DECAY D-ELSETNUM E-INCLINATION F-RAAN
G-ECCENTRICITY H-ARGPERIGEE I-MNANOM J-MNMOTION K-ORBITNUM Z-CHECKSUM

TO ALL RADIO AMATEURS BT

PO-63
1 29712U 07001D   07333.77137972  .00000720  00000-0  10220-3 0  9579
2 29712 097.9035 030.4800 0013399 315.6719 044.3397 14.79918907 47824
VO-52
1 28650U 05017B   07332.92389359  .00000182  00000-0  29822-4 0 07915
2 28650 097.8158 039.8010 0028301 077.4821 282.9513 14.81388848138808
AO-40
1 26609U 00072B   07327.58552274 -.00000056  00000-0  10000-3 0  9726
2 26609 007.0232 109.8145 7933750 025.9532 357.9399 01.25583264 32441
SO-33
1 25509U 98061B   07332.53166291 -.00000003  00000-0 -11004-4 0 00764
2 25509 031.4309 016.5352 0354841 064.2057 299.4735 14.28186791474768
FO-29
1 24278U 96046B   07332.97097675 -.00000021  00000-0  14700-4 0 06495
2 24278 098.5757 270.6483 0351020 016.5574 344.6702 13.52933939557184
RS-15
1 23439U 94085A   07332.86078893 -.00000039  00000-0  10000-3 0 01181
2 23439 064.8137 100.6122 0154633 160.8979 199.7829 11.27552976532264
UO-11
1 14781U 84021B   07332.66123518  .00000298  00000-0  47042-4 0 05326
2 14781 098.1761 358.4286 0009421 008.8030 351.3341 14.79598484274053
AO-10
1 14129U 83058B   07332.70664333 -.00000276  00000-0  10000-3 0  4476
2 14129 025.9789 243.6457 6048731 077.0160 340.5510 02.05872564183953
AO-07
1 07530U 74089B   07332.70244764 -.00000028  00000-0  10000-3 0 00392
2 07530 101.4949 005.7447 0011814 295.5375 064.4475 12.53572898511730
LIBERT
1 31129U 07012N   07333.15849425  .00000336  00000-0  89029-4 0  5518
2 31129 098.0662 039.8540 0101537 236.1884 122.9551 14.51979813 32746
CP3
1 31128U 07012M   07332.68977797 -.00000048  00000-0  00000 0 0  1927
2 31128 098.0667 039.3832 0102157 237.5707 121.5573 14.51887636 32691
CP4
1 31122U 07012F   07332.74979627  .00000549  00000-0  13192-3 0 01983
2 31122 098.0673 040.5650 0085070 234.4271 124.8889 14.55056252032782
NO-61
1 29664U 06055F   07332.98332633  .00186509  29210-4  15678-3 0 06944
2 29664 051.6256 294.3587 0001433 319.4830 040.6070 16.13236859054528
HO-59
1 29484U 06041F   07333.67009481  .00048043  32074-5  24412-3 0  9007
2 29484 098.2612 050.0763 0159413 026.9196 334.0177 15.65429420 66830
CO-56
1 28941U 06005C   07332.85566608  .00018585  24103-5  17011-3 0 06626
2 28941 098.1125 052.9072 0203105 047.2423 314.5753 15.46537547098822
AO-51
1 28375U 04025K   07332.69547423  .00000021  00000-0  18950-4 0 09698
2 28375 098.0933 003.3786 0085250 043.9702 316.8229 14.40588379179390
CO-57
1 27848U 03031J   07332.54359080  .00000060  00000-0  48616-4 0 01330
2 27848 098.7181 337.7470 0010036 345.8135 014.2752 14.20360082228789
CO-55
1 27844U 03031E   07332.57225897  .00000077  00000-0  56077-4 0 01773
2 27844 098.7179 338.6321 0009975 342.6049 017.4786 14.20545783228815
SO-50
1 27607U 02058C   07332.41009671  .00000025  00000-0  25950-4 0 04672
2 27607 064.5577 306.3948 0072909 320.0791 039.4961 14.71305610265283
NO-44
1 26931U 01043C   07332.78745648 -.00000246  00000-0 -63698-4 0 07452
2 26931 067.0525 083.4792 0005234 251.5423 108.5102 14.29502835321627
MO-46
1 26548U 00057D   07332.63754473  .00000132  00000-0  33756-4 0 09603
2 26548 064.5587 033.8936 0005632 350.4588 009.6422 14.83201695387924
GO-32
1 25397U 98043D   07332.75049340 -.00000127  00000-0 -38188-4 0  4626
2 25397 098.3928 012.5796 0002199 101.9265 258.2174 14.23133919487567
PO-28
1 22829U 93061G   07332.61263997 -.00000071  00000-0 -11452-4 0 08132
2 22829 098.3380 297.6618 0010761 105.1380 255.0982 14.30172822739312
IO-26
1 22826U 93061D   07332.73725141 -.00000006  00000-0  13845-4 0 05385
2 22826 098.3488 296.6413 0009558 128.4329 231.7705 14.29470818739085
AO-27
1 22825U 93061C   07332.78830048  .00000097  00000-0  54663-4 0 08398
2 22825 098.3555 295.6874 0008846 130.0468 230.1497 14.29224168739009
LO-19
1 20442U 90005G   07332.67848456 -.00000079  00000-0 -14542-4 0  1146
2 20442 098.1869 327.3575 0012838 057.5386 302.7023 14.32016067932239
AO-16
1 20439U 90005D   07332.87717784  .00000019  00000-0  22447-4 0 01913
2 20439 098.2094 318.4768 0011912 058.1728 302.0608 14.31777130932113
NOAA-18
1 28654U 05018A   07332.75646738  .00000310  00000-0  19631-3 0 02170
2 28654 098.8471 271.3946 0014432 160.1314 200.0449 14.11115138130061
NOAA-17
1 27453U 02032A   07332.73780762  .00000041  00000-0  36485-4 0 06984
2 27453 098.5632 037.9439 0011208 339.5002 020.5723 14.23928149282133
NOAA-16
1 26536U 00055A   07332.88852883 -.00000146  00000-0 -53739-4 0 07034
2 26536 099.1384 312.8646 0011330 071.8252 288.4169 14.12458709370358
OKEAN-0
1 25860U 99039A   07332.56978860  .00000077  00000-0  19047-4 0  2234
2 25860 097.7376 327.2089 0000918 112.3028 247.8284 14.73487788449704
FENGYUN1
1 25730U 99025A   07332.97765362  .00000194  00000-0  13932-3 0 02934
2 25730 098.7062 310.7417 0021109 017.2180 342.9696 14.07646545440656
RESURS
1 25394U 98043A   07332.75188154  .00000013  00000-0  23658-4 0  7957
2 25394 098.4181 020.5814 0002454 066.6233 293.5204 14.24149554487774
NOAA-15
1 25338U 98030A   07332.65505261  .00000111  00000-0  66227-4 0 02584
2 25338 098.5411 324.7960 0009685 270.9313 089.0743 14.24674661496107
SICH-1
1 23657U 95046A   07333.76221933  .00000083  00000-0  75170-5 0  2377
2 23657 082.5275 283.0129 0025757 060.6642 299.7149 14.81529468660549
NOAA-14
1 23455U 94089A   07332.77154084 -.00000253  00000-0 -11004-3 0 09171
2 23455 098.9717 039.6794 0009390 000.3280 359.7899 14.13728597665895
OKEAN-4
1 23317U 94066A   07332.73026916  .00000206  00000-0  22560-4 0 04385
2 23317 082.5360 143.0382 0023957 071.8257 288.5554 14.82554582708432
MET-2/21
1 22782U 93055A   07332.88560948  .00000021  00000-0  56084-5 0 09986
2 22782 082.5479 271.2478 0023558 131.6257 228.6939 13.83621319719291
MET-3/5
1 21655U 91056A   07332.95028744  .00000051  00000-0  10000-3 0 04269
2 21655 082.5565 246.5242 0013327 150.4739 209.7138 13.17013717783090
NOAA-12
1 21263U 91032A   07332.75804369  .00000023  00000-0  28775-4 0 04461
2 21263 098.7604 329.7976 0012413 354.8002 005.3062 14.25504615859692
NOAA-11
1 19531U 88089A   07332.83457952 -.00000168  00000-0 -64165-4 0 09409
2 19531 098.8079 059.9153 0010909 284.5185 075.4767 14.14856055989434
NOAA-10
1 16969U 86073A   07332.68862302 -.00000068  00000-0 -95227-5 0 09081
2 16969 098.7370 349.9116 0013104 050.4029 309.8292 14.27342044102691
CAPE1
1 31130U 07012P   07332.96255190 -.00000053  00000-0 -11006-5 0 01771
2 31130 098.0700 039.6504 0102067 236.6277 122.5087 14.51906108032522
MAST
1 31126U 07012K   07332.66382972  .00000124  00000-0  39066-4 0 01954
2 31126 098.0650 039.8871 0093993 235.9751 123.2480 14.53380085032747
FALCON
1 30776U 07006E   07332.95409430  .00000310  00000-0  25760-4 0 01939
2 30776 035.4348 293.7567 0001034 045.7387 314.3415 15.02810001039857
FCAL
1 29667U 06055J   07332.91902007  .00028691  11584-4  77927-4 0 05383
2 29667 051.6325 306.3518 0008306 274.3034 085.7054 15.95576020054233
NCUBE2
1 28897U 05043H   07332.63783958  .00000172  00000-0  45611-4 0 04143
2 28897 098.1144 226.0585 0016958 323.7746 036.2324 14.59775343103363
CO-58
1 28895U 05043F   07332.71861297  .00000170  00000-0  45349-4 0  8851
2 28895 098.1160 226.1947 0017395 321.7739 038.2210 14.59609349111095
UWE-1
1 28892U 05043C   07332.67639476  .00000179  00000-0  47215-4 0 09107
2 28892 098.1133 225.8780 0017103 322.4139 037.5884 14.59566386111207
OO-38
1 26063U 00004C   07332.69542817  .00000007  00000-0  22605-4 0 00737
2 26063 100.2196 005.6683 0037231 057.1741 303.3013 14.35821230410655
ISS
1 25544U 98067A   07333.61803439  .00018909  00000-0  11848-3 0  4313
2 25544 051.6420 330.9733 0000940 212.6991 253.8284 15.76843412516871
PO-34
1 25520U 98064B   07332.44361735  .00000516  00000-0  15624-4 0 08789
2 25520 028.4589 089.3324 0005793 242.4519 117.5512 15.17089633502497
UARS
1 21701U 91063B   07332.46820498  .00003767  00000-0  63777-4 0 02468
2 21701 056.9751 320.2520 0092858 146.8560 213.8361 15.49745388891200
HUBBLE
1 20580U 90037B   07333.85126790  .00000405  00000-0  18565-4 0   166
2 20580 028.4681 189.7970 0003470 059.4693 300.6238 15.00309320764863
/EX






More information about the Keps mailing list